Simultaneous Nadir Overpasses (SNOs) Predictions

Prediction of SNOs between LANDSAT-8 and NPP Satellite Orbit:

Table of predicted SNOs for the next 14.0 days since TLE Epoch: 8/17/2015
Index Date (LANDSAT-8) Time (LANDSAT-8) Lat,Lon (LANDSAT-8) SZA (LANDSAT-8 ) Date (NPP) Time (NPP) Lat,Lon (NPP) SZA (NPP ) Distance(km) Time Diff (sec)
1 08/18/2015 12:13:13 -70.49, 173.66 122.67 08/18/2015 12:12:30 -70.51, 173.59 122.64 3.13 43
2 08/18/2015 13:02:40 70.39, -18.84 57.25 08/18/2015 13:03:14 70.40, -18.92 57.26 3.09 34
3 08/21/2015 03:40:01 71.27, 123.10 58.95 08/21/2015 03:38:54 71.31, 120.71 59.07 85.46 67
4 08/21/2015 04:29:44 -70.45, -70.53 121.84 08/21/2015 04:29:21 -70.43, -70.51 121.85 1.54 23
5 08/21/2015 05:19:11 70.34, 96.97 58.08 08/21/2015 05:20:05 70.32, 96.97 58.05 2.18 54
6 08/23/2015 19:56:44 70.55,-122.12 59.15 08/23/2015 19:55:32 70.56,-122.26 59.17 5.16 72
7 08/23/2015 20:46:15 -70.39, 45.27 121.00 08/23/2015 20:46:13 -70.41, 45.29 120.97 2.40 2
8 08/23/2015 21:35:43 70.23,-147.32 58.86 08/23/2015 21:36:55 70.20,-147.07 58.82 10.01 72
9 08/26/2015 12:13:15 70.49, -6.34 60.00 08/26/2015 12:12:23 70.49, -6.37 60.02 1.37 52
10 08/26/2015 13:02:45 -70.38, 161.14 120.09 08/26/2015 13:03:05 -70.40, 161.09 120.08 2.32 20
11 08/26/2015 13:52:27 69.45, -32.53 59.03 08/26/2015 13:53:33 69.44, -30.17 58.96 92.21 66
12 08/29/2015 04:29:45 70.41, 109.43 60.86 08/29/2015 04:29:13 70.42, 109.51 60.88 3.49 32
13 08/29/2015 05:19:15 -70.31, -83.09
